Find Starlink 5754

NORAD ID: 55579 Int'l Des: 2023-020 Owner: SPXS Country: US Constellation: starlink operational
LEOCIRCULAR

当前视图

正在加载3D地球...

About Starlink 5754

Starlink 5754 (NORAD 55579) is a starlink constellation satellite (v1.5) launched Feb 12, 2023 by SPXS of US. It operates in LEO, CIRCULAR orbit with a mass of 305.00 kg.

关于 Starlink 5754

正在加载描述...

即将过境

Passes for default location (London). Set your location on the main map for personalized predictions.

高度历史

Loading altitude history...

两行轨道根数

1 55579U 23020L 26171.28356344 .00001848 00000-0 76633-4 0 9990
2 55579 43.0028 145.7612 0000851 284.7108 75.3650 15.27594915184603
Epoch: Jun 20, 2026 • Age: 11 hours

当前状态

高度 486.7 km
速度 7.63 km/s
星下点 42.92°N, 58.38°E
发射日期 Feb 12, 2023
运行时间 3.3 years
类型 internet

技术详情

分类 Payload
质量 305.00 kg
干质量 290.00 kg
总质量 305.00 kg
长度 0.20 m
直径 2.80 m
跨度 9.00 m
形状 Box + pan
制造商 SPXS
平台类型 Starlink
阶段状态 In Orbit
所有者/国家 SPXS/US

Most Searched